This is the latest recevied weather packets stored in our database for station/object SA6BET-2. If no packets are shown the sender has not sent any weather packets the latest 10 day(s).
| Time | Temp. | Humidity | Pressure | Rain* | Wind** | Luminosity | Snow |
|---|---|---|---|---|---|---|---|
| 1778254470 | 27.22° C | 61% | 1015.1 hPa | - | - | - | - |
| 1778253570 | 25° C | 60% | 1015.1 hPa | - | - | - | - |
| 1778252670 | 26.67° C | 54% | 1015.3 hPa | - | - | - | - |
| 1778251770 | 27.22° C | 52% | 1015.3 hPa | - | - | - | - |
| 1778250870 | 28.33° C | 51% | 1015.3 hPa | - | - | - | - |
| 1778249970 | 28.33° C | 53% | 1015.5 hPa | - | - | - | - |
| 1778249069 | 29.44° C | 54% | 1015.4 hPa | - | - | - | - |
| 1778248169 | 28.89° C | 57% | 1015.5 hPa | - | - | - | - |
| 1778247269 | 28.33° C | 57% | 1015.7 hPa | - | - | - | - |
| 1778246369 | 27.78° C | 59% | 1015.8 hPa | - | - | - | - |
| 1778245469 | 27.22° C | 63% | 1015.9 hPa | - | - | - | - |
| 1778244569 | 27.22° C | 72% | 1016 hPa | - | - | - | - |
| 1778243669 | 24.44° C | 93% | 1016.1 hPa | - | - | - | - |
| 1778242768 | 23.33° C | 100% | 1016.2 hPa | - | - | - | - |
| 1778241879 | 21.67° C | 100% | 1016 hPa | - | - | - | - |
| 1778240975 | 20° C | 100% | 1016.6 hPa | - | - | - | - |
| 1778240074 | 17.78° C | 100% | 1017.1 hPa | - | - | - | - |
| 1778239174 | 16.67° C | 100% | 1017.1 hPa | - | - | - | - |
| 1778238274 | 16.11° C | 100% | 1017.4 hPa | - | - | - | - |
| 1778237374 | 15° C | 100% | 1017.6 hPa | - | - | - | - |
| 1778236474 | 15.56° C | 100% | 1017.7 hPa | - | - | - | - |
| 1778235573 | 15° C | 100% | 1017.6 hPa | - | - | - | - |
| 1778234673 | 15.56° C | 100% | 1017.5 hPa | - | - | - | - |
| 1778233773 | 15.56° C | 100% | 1017.5 hPa | - | - | - | - |
| 1778232873 | 15.56° C | 100% | 1017.5 hPa | - | - | - | - |
* Rain since midnight (hover to see other rain measurements)
** Current wind speed in m/s (hover to see current wind gust speed)